Probability
0 0 0 0 0 0 0 0 0 0 0 0 0 0 1 2 3 3 3 4 4 4 3 2 2 1 0 0 0 1 2 3 3 2 1 0 1 2 3 3 2 0 0
0 0 0 0 0 0 0 0 0 0 0 0 0 0 0 1 1 1 1 1 2 2 3 3 3 2 1 1 1 1 2 3 3 2 1 0 1 3 3 3 2 1 0
0 0 0 0 0 0 0 0 0 0 0 0 0 0 0 0 0 0 0 0 0 0 1 1 2 2 2 2 1 1 1 2 2 2 1 0 1 3 4 3 2 1 0
0 0 0 0 0 0 0 0 0 0 0 0 0 0 0 0 0 0 0 0 0 0 0 0 1 1 1 1 1 0 1 1 1 2 1 1 2 4 5 4 3 1 1
0 0 0 0 0 0 0 0 0 0 0 0 0 0 0 0 0 0 0 0 0 0 0 0 0 0 0 1 0 0 1 1 1 2 2 2 3 4 4 4 3 3 2
0 0 0 0 0 0 0 0 0 0 0 0 0 0 0 0 0 0 0 0 0 0 0 0 0 0 0 0 0 1 1 0 1 3 4 4 4 4 3 3 4 3 2
0 0 0 0 0 0 0 0 1 0 0 0 0 0 0 0 0 0 0 0 0 0 0 0 0 0 0 0 0 1 0 0 1 4 6 5 4 3 3 3 3 2 1
0 0 0 0 0 0 0 0 0 0 0 0 0 0 0 0 0 0 0 0 0 0 0 0 0 0 0 0 0 0 0 0 1 3 5 5 4 3 3 3 2 1 0
0 0 0 0 0 0 0 0 0 0 0 0 0 0 0 0 0 0 0 0 0 0 0 0 0 0 0 0 0 0 0 0 1 3 4 4 4 4 3 2 1 1 0
0 0 0 0 0 0 0 0 0 0 0 0 0 0 0 0 0 0 0 0 0 0 0 0 0 0 0 0 0 0 0 0 1 2 2 3 3 3 3 2 1 1 1
0 0 0 0 0 0 0 0 0 0 0 0 0 0 0 0 0 0 0 0 0 0 0 0 0 0 0 0 0 0 0 0 1 1 1 1 1 2 3 2 2 2 2
0 0 0 0 0 0 0 0 0 0 0 0 0 0 0 0 0 0 0 0 0 0 0 0 0 0 0 0 0 0 0 0 0 0 0 0 0 1 2 2 2 1 1
0 0 0 0 0 0 0 0 0 0 0 0 0 0 0 0 0 0 0 0 0 0 0 0 0 0 0 0 0 0 0 0 0 0 0 0 0 2 2 1 1 0 1
0 0 0 0 0 0 0 0 0 0 0 0 0 0 0 0 0 0 0 0 0 0 1 0 0 0 0 0 0 0 0 0 0 0 0 0 1 2 2 1 0 0 1
0 0 0 0 0 0 0 0 0 0 0 0 0 0 0 0 0 0 0 0 0 0 0 0 0 0 0 0 0 0 0 0 0 1 1 0 0 1 1 0 0 0 1
0 0 0 0 0 0 0 0 0 0 0 0 0 0 0 0 0 0 0 0 0 0 0 0 0 0 0 0 0 0 0 0 0 1 1 0 0 0 1 1 0 0 0
0 0 0 0 0 0 0 0 0 0 0 0 0 0 0 0 0 0 0 0 0 0 0 0 0 0 0 0 0 0 0 0 0 1 1 0 0 0 1 1 0 0 0
0 0 0 0 0 0 0 0 0 0 0 0 0 0 0 0 0 0 0 0 0 0 0 0 0 0 0 0 0 0 0 0 0 0 0 0 0 0 1 1 0 0 0
0 0 0 0 0 0 0 0 0 0 0 0 0 0 0 0 0 0 0 0 0 0 0 0 0 1 0 0 0 1 0 0 0 0 0 0 0 0 0 0 0 1 1
0 0 0 0 0 0 0 0 0 0 0 0 0 0 0 0 0 0 0 0 0 0 0 0 0 0 0 0 0 0 0 0 0 0 0 0 0 0 0 0 0 1 2
0 0 0 0 0 0 0 0 0 0 0 0 0 0 0 0 0 0 0 0 0 0 0 0 0 0 0 0 0 0 0 0 0 0 0 0 0 0 0 0 0 1 2
0 0 0 0 0 0 0 0 0 0 0 0 0 0 0 0 0 0 0 0 0 0 0 0 0 0 0 0 0 0 0 0 0 0 1 0 0 0 0 0 0 0 1
0 0 0 0 0 0 0 0 0 0 0 0 0 0 0 0 0 0 0 0 0 0 0 0 0 0 0 0 0 1 1 1 0 0 0 0 0 0 0 0 0 0 0
0 0 0 0 0 0 0 0 0 0 0 0 0 0 0 0 0 0 0 0 0 0 0 0 0 0 0 0 0 1 2 2 1 0 0 0 0 0 0 0 0 0 0
0 0 0 0 0 0 0 0 0 0 0 0 0 0 0 0 0 0 0 0 0 0 0 0 0 0 0 0 0 1 2 3 2 1 0 0 0 0 0 0 0 0 0
0 0 0 0 0 0 0 0 0 0 0 0 0 0 0 0 0 0 0 0 0 0 0 0 0 0 0 0 0 0 1 3 3 2 1 0 0 0 0 0 0 0 0
Wind_Speed
3 4 6 4 5 5 6 7 7 7 7 7 7 8 8 9 8 8 8 8 8 8 8 8 7 7 6 6 6 6 7 7 7 7 7 7 8 8 8 8 6 6 9
3 4 5 4 5 5 6 6 7 8 7 8 8 8 9 9 8 8 8 8 9 8 8 8 8 7 7 6 6 6 7 7 7 7 7 7 7 7 7 7 4 6 7
4 4 5 5 5 6 7 7 7 8 8 8 8 8 9 9 9 9 8 8 9 8 8 8 8 8 8 7 6 6 6 6 6 6 5 5 6 6 7 7 6 7 7
4 4 6 6 6 7 7 8 8 8 8 9 9 9 9 9 9 8 8 9 8 8 8 8 8 8 8 7 7 7 7 5 5 3 3 3 4 8 6 5 6 6 6
5 5 8 6 7 8 8 9 9 9 9 9 9 9 9 9 9 9 9 8 8 8 8 8 9 9 8 8 7 8 7 6 4 2 3 3 3 7 5 5 5 5 5
6 7 9 7 8 8 8 9 9 9 10 9 9 9 9 9 9 9 9 8 8 8 8 9 9 8 8 8 7 7 7 5 3 3 3 3 3 6 5 5 5 5 5
6 7 9 8 9 9 9 9 9 9 10 10 10 10 10 10 10 10 9 9 9 9 9 9 9 10 9 8 7 7 5 3 2 3 3 3 5 6 4 4 4 4 5
6 6 8 9 8 9 9 9 9 9 9 10 10 10 11 11 11 11 10 10 10 10 10 10 10 11 10 9 8 8 5 1 4 4 4 4 6 5 4 4 4 4 4
6 6 6 7 8 8 8 9 9 9 9 9 10 10 11 11 11 11 11 10 10 10 11 11 11 10 10 9 9 8 7 4 3 3 4 4 6 5 4 5 5 5 5
5 5 5 5 5 6 8 9 8 8 9 9 9 8 8 8 9 9 9 11 10 10 10 10 10 10 10 9 9 9 6 3 5 5 4 6 7 5 5 5 6 6 6
5 4 5 4 4 4 6 7 6 7 6 5 7 6 3 5 7 6 11 10 9 9 9 9 9 9 8 8 9 6 3 3 5 4 5 8 7 6 7 7 7 6 6
5 5 4 4 4 4 4 4 3 4 4 4 5 5 4 5 5 5 8 8 8 8 8 8 6 5 2 4 5 3 3 4 4 4 6 8 7 7 8 8 7 7 7
5 5 4 4 4 4 3 3 3 3 3 4 5 5 4 4 3 3 3 4 4 4 4 5 3 3 4 4 3 4 4 3 3 3 6 8 7 8 8 9 9 8 9
5 5 4 3 3 4 4 3 3 3 3 3 3 5 3 3 3 3 3 3 3 3 3 3 3 4 4 5 4 4 5 3 3 3 6 9 9 8 9 9 9 9 8
5 5 5 4 3 3 4 2 3 3 3 4 3 3 4 3 3 3 3 2 3 3 3 3 3 5 4 5 4 4 5 4 4 4 5 9 9 8 8 9 8 8 8
6 5 5 5 4 4 3 3 3 3 3 3 3 3 3 3 2 2 3 3 3 2 3 2 3 3 3 4 4 4 4 4 4 4 4 6 8 8 7 7 7 7 7
6 5 5 4 4 3 3 3 2 2 2 3 2 3 4 3 2 2 2 3 2 2 2 2 3 2 3 3 4 4 4 4 3 4 4 3 5 7 7 7 7 7 6
6 6 5 4 4 4 3 2 2 2 2 2 2 2 3 3 3 3 2 2 2 2 2 2 2 2 3 3 3 3 3 3 4 3 3 3 3 3 6 7 6 6 6
6 6 6 5 4 4 3 2 2 2 2 2 2 2 2 3 3 3 2 1 2 2 2 2 2 2 2 3 3 3 3 3 3 3 3 3 3 2 3 6 6 6 6
5 6 6 6 5 5 3 2 2 2 2 2 2 2 2 2 2 3 1 2 2 2 2 2 3 2 2 2 2 3 2 2 2 3 2 2 2 3 2 2 2 4 5
6 6 6 6 6 4 3 3 2 2 2 2 1 2 2 2 2 2 1 2 2 2 2 2 2 2 2 1 1 1 2 2 2 2 2 2 2 2 2 2 1 1 3
7 7 7 6 6 5 3 3 2 2 2 2 2 2 2 1 1 1 1 1 2 1 2 2 1 1 1 0 1 1 1 2 1 2 1 1 2 1 2 2 2 1 1
7 7 6 7 7 6 5 3 3 3 2 2 2 2 1 1 1 1 1 1 1 1 1 1 1 1 0 0 2 2 2 0 1 1 1 1 1 1 1 2 2 2 1
8 7 7 7 6 6 5 4 5 4 3 3 2 2 2 2 2 1 1 1 1 0 1 1 0 0 1 0 0 1 2 2 1 1 1 0 1 1 1 1 1 1 1
8 7 6 6 6 6 5 5 5 4 3 2 3 3 2 2 2 2 1 1 1 1 1 0 1 1 1 1 1 0 0 1 2 2 1 1 1 0 1 1 0 1 1
7 6 6 6 6 6 6 6 5 5 4 4 4 3 2 2 1 1 1 1 1 1 1 1 1 1 1 1 1 1 1 1 1 1 2 2 1 0 1 1 1 0 0
Wind_Direction
60 55 54 28 39 53 60 64 67 70 67 66 69 70 72 72 70 74 77 75 74 77 82 89 97 101 104 113 118 119 116 117 116 117 118 120 123 123 123 125 141 130 113
72 70 72 36 47 60 69 72 74 71 68 69 71 69 71 74 74 72 74 77 76 74 76 79 83 87 91 97 106 114 115 115 117 120 127 130 121 118 121 122 106 97 113
80 80 91 61 62 70 75 75 77 74 70 71 73 73 75 74 74 73 72 76 77 75 77 83 83 83 86 87 94 100 106 110 116 126 152 145 127 120 121 119 110 108 115
85 80 71 68 72 74 77 78 77 74 71 73 74 74 76 75 73 73 76 75 75 75 76 83 85 86 85 83 84 88 94 102 110 144 157 128 133 121 125 119 114 116 116
91 84 80 76 78 78 79 79 78 72 71 73 72 73 73 74 74 72 74 73 71 73 75 80 79 84 88 83 84 86 87 88 103 138 96 100 100 112 120 121 116 118 116
98 90 85 79 83 80 78 76 74 70 69 73 72 72 72 71 73 75 76 76 74 72 75 85 80 83 87 83 86 88 88 87 123 91 88 92 93 96 103 103 110 116 121
96 93 92 81 80 78 76 75 72 71 69 72 75 72 71 70 71 73 74 73 71 73 75 80 79 80 78 77 79 85 90 87 87 95 103 102 94 95 100 97 107 123 125
102 100 102 99 83 77 75 72 71 70 70 69 72 71 69 68 67 68 69 69 69 70 74 75 76 74 73 70 70 72 70 48 100 89 89 88 88 97 100 103 114 125 129
104 105 104 111 109 101 83 73 72 70 70 69 70 71 71 68 66 66 67 66 67 67 71 72 71 72 70 69 68 67 67 59 74 76 84 79 83 89 93 98 106 110 112
109 106 104 99 97 102 101 88 80 76 73 71 71 71 77 87 82 74 72 65 66 68 71 71 70 71 70 69 69 67 69 80 67 69 64 73 76 77 83 97 98 100 102
114 112 106 103 99 94 92 102 106 102 91 99 97 95 94 80 79 82 64 64 67 70 73 72 72 74 79 82 73 66 66 65 68 57 59 63 65 73 79 90 88 89 92
123 115 108 108 110 105 95 103 97 91 90 76 74 75 70 66 65 66 88 76 75 80 87 80 79 94 85 81 90 103 64 62 65 65 69 65 64 72 78 83 83 86 86
121 116 115 108 106 106 106 94 88 85 86 83 77 81 75 76 85 72 87 105 97 99 86 102 117 73 68 65 58 66 60 53 54 61 71 66 63 69 77 81 81 81 80
129 121 116 113 114 111 108 102 102 94 85 83 78 74 70 69 68 72 73 71 71 72 64 59 58 72 70 74 73 71 73 59 55 60 70 67 66 67 73 77 79 81 82
138 135 129 128 125 119 102 106 109 92 84 90 76 72 73 64 68 76 75 74 64 65 69 59 57 62 63 64 66 67 68 66 65 69 82 78 72 68 71 75 77 78 79
150 144 137 138 136 130 127 128 101 96 104 85 81 75 78 76 74 67 73 73 71 65 60 64 66 64 59 57 57 63 66 68 72 80 85 94 85 72 71 76 79 78 81
153 151 140 145 143 133 117 106 104 105 92 84 79 79 86 77 81 79 72 75 75 73 77 67 73 65 69 70 66 58 56 54 66 75 79 82 97 93 81 75 75 75 75
165 159 150 159 155 141 131 131 118 112 101 93 86 71 79 83 74 70 70 77 80 75 73 72 65 74 73 64 61 60 65 64 64 66 78 83 74 84 94 83 75 73 71
176 170 163 161 159 152 144 146 133 123 119 102 100 88 81 88 91 87 68 69 79 72 63 65 67 63 76 73 71 67 61 62 66 68 75 74 73 72 86 102 94 76 73
180 180 169 157 170 155 158 160 145 135 130 114 110 111 89 92 94 96 104 90 76 81 76 82 85 81 73 82 74 67 59 65 66 62 65 81 74 68 69 81 112 106 91
179 185 177 172 173 167 169 179 165 152 147 133 115 98 121 120 109 101 108 85 71 76 74 83 94 107 94 90 111 104 93 79 66 72 62 70 74 63 68 67 63 73 119
183 189 187 183 178 176 179 179 169 155 156 125 147 147 153 144 127 116 143 124 123 112 107 94 105 82 79 298 287 241 170 145 116 66 65 64 55 62 52 48 50 55 37
191 195 198 189 182 179 173 170 154 143 158 162 167 157 161 163 146 158 139 166 160 174 139 159 159 153 146 345 335 312 296 37 78 127 59 56 56 46 46 35 40 43 48
198 198 201 190 183 177 175 180 177 182 181 179 171 164 172 171 172 183 172 208 197 191 192 192 170 263 260 231 65 333 333 356 271 188 182 101 50 16 3 23 18 33 34
193 195 200 186 180 175 182 181 196 193 185 169 168 166 173 162 180 184 191 206 212 210 236 221 224 259 262 284 293 274 347 288 273 275 264 264 218 310 341 327 347 6 28
185 184 189 184 178 176 185 189 196 189 189 179 182 179 182 170 184 189 213 216 211 217 224 220 215 228 265 280 281 269 261 277 284 271 262 262 273 266 276 310 298 299 317